Date String (YYYY-MM-DD hh:mm:ss) UTC,Instrument flags,absolute air pressure of the measurement (hPa),sample flow rate (lpm),inlet stack bypass flow (lpm),air temperature of the measurement (°C),ambient temperature measured by the external sensor (°C),aerosol sample conditioner tube jacket temperature (°C),OPC LED temperature (°C),internal box temperature (°C),relative humidity of the measurement (%),span deviation,mass concentration of particles derived from Lorenz-Mie calculation of OPC scattering (μg/m³),mass concentration of particles derived from Lorenz-Mie calculation of OPC scattering (μg/m³),mass concentration of particles derived from Lorenz-Mie calculation of OPC scattering (μg/m³)
DateTimeUTC,F1_M11,P_M11,Q1_M11,Q2_M11,T1_M11,T2_M11,T3_M11,T4_M11,T5_M11,U1_M11,ZSPAN_M11,X0_M11,X2_M11,X1_M11
2023-06-11 15:00:00,SystemResetWarning,0833.1,5.01,000.00,029.7,028.1,000.0,038.2,031.1,26.6,0000.0,0004.86,0003.19,0002.68
2023-06-11 15:01:00,SystemResetWarning,0833.1,5.00,000.00,029.6,028.1,000.0,038.2,031.1,26.4,0000.0,0004.82,0003.17,0002.70
2023-06-11 15:02:00,SystemResetWarning,0833.1,5.00,000.00,029.6,028.0,000.0,038.2,031.1,26.2,0000.0,0004.83,0003.18,0002.72
2023-06-11 15:03:00,SystemResetWarning,0833.1,4.99,000.00,029.7,028.0,000.0,038.2,031.1,26.1,0000.0,0005.06,0003.24,0002.77
2023-06-11 15:04:00,SystemResetWarning,0833.1,5.00,000.00,029.7,028.0,000.0,038.2,031.1,26.2,0000.0,0005.14,0003.26,0002.80
2023-06-11 15:05:00,SystemResetWarning,0833.1,5.00,000.00,029.7,028.0,000.0,038.2,031.1,26.2,0000.0,0004.84,0003.24,0002.81
2023-06-11 15:06:00,SystemResetWarning,0833.0,5.00,000.00,029.7,028.0,000.0,038.2,031.0,26.1,0000.0,0004.79,0003.25,0002.82
2023-06-11 15:07:00,SystemResetWarning,0833.1,5.00,000.00,029.6,028.0,000.0,038.2,031.0,26.2,0000.0,0004.67,0003.23,0002.82
2023-06-11 15:08:00,SystemResetWarning,0833.1,5.01,000.00,029.6,028.0,000.0,038.2,031.0,26.2,0000.0,0004.73,0003.24,0002.85
2023-06-11 15:09:00,SystemResetWarning,0833.1,5.00,000.00,029.7,028.0,000.0,038.2,031.0,26.4,0000.0,0004.77,0003.25,0002.88
2023-06-11 15:10:00,SystemResetWarning,0833.1,4.98,000.00,029.7,028.0,000.0,038.2,031.1,26.4,0000.0,0004.84,0003.25,0002.89
2023-06-11 15:11:00,SystemResetWarning,0833.1,4.99,000.00,029.7,028.0,000.0,038.2,031.1,26.2,0000.0,0004.86,0003.23,0002.91
2023-06-11 15:12:00,SystemResetWarning,0833.1,5.00,000.00,029.7,028.1,000.0,038.2,031.1,26.2,0000.0,0006.27,0003.24,0002.92
2023-06-11 15:13:00,SystemResetWarning,0833.1,5.00,000.00,029.7,028.1,000.0,038.2,031.1,26.4,0000.0,0006.36,0003.24,0002.92
2023-06-11 15:14:00,SystemResetWarning,0833.1,5.00,000.00,029.7,028.1,000.0,038.2,031.1,26.2,0000.0,0006.31,0003.23,0002.93
2023-06-11 15:15:00,SystemResetWarning,0833.0,5.00,000.00,029.7,028.1,000.0,038.2,031.1,26.4,0000.0,0006.17,0003.21,0002.92
2023-06-11 15:16:00,SystemResetWarning,0833.1,4.99,000.00,029.7,028.1,000.0,038.2,031.2,26.5,0000.0,0006.25,0003.23,0002.93
2023-06-11 15:17:00,SystemResetWarning,0833.3,4.98,000.00,029.7,028.2,000.0,038.2,031.2,26.6,0000.0,0006.26,0003.22,0002.93
2023-06-11 15:18:00,SystemResetWarning,0833.2,5.00,000.00,029.7,028.2,000.0,038.2,031.2,26.2,0000.0,0006.33,0003.24,0002.95
2023-06-11 15:19:00,SystemResetWarning,0833.2,5.01,000.00,029.7,028.2,000.0,038.2,031.2,26.3,0000.0,0006.28,0003.25,0002.97
2023-06-11 15:20:00,SystemResetWarning,0833.0,5.01,000.00,029.7,028.2,000.0,038.2,031.2,26.3,0000.0,0006.32,0003.25,0002.97
2023-06-11 15:21:00,SystemResetWarning,0833.1,4.99,000.00,029.7,028.2,000.0,038.2,031.2,26.5,0000.0,0006.25,0003.24,0002.97
2023-06-11 15:22:00,SystemResetWarning,0833.1,4.99,000.00,029.7,028.2,000.0,038.2,031.2,26.6,0000.0,0006.13,0003.25,0002.97
2023-06-11 15:23:00,SystemResetWarning,0833.0,5.01,000.00,029.7,028.2,000.0,038.2,031.2,26.4,0000.0,0004.84,0003.27,0002.98
2023-06-11 15:24:00,SystemResetWarning,0833.1,5.01,000.00,029.7,028.2,000.0,038.2,031.2,26.5,0000.0,0004.59,0003.27,0002.98
2023-06-11 15:25:00,SystemResetWarning,0833.1,5.01,000.00,029.7,028.2,000.0,038.3,031.3,26.7,0000.0,0004.46,0003.24,0002.95
2023-06-11 15:26:00,SystemResetWarning,0833.0,4.99,000.00,029.8,028.2,000.0,038.3,031.3,27.0,0000.0,0004.48,0003.22,0002.92
2023-06-11 15:27:00,SystemResetWarning,0833.1,5.00,000.00,029.8,028.2,000.0,038.3,031.3,26.6,0000.0,0004.51,0003.23,0002.92
2023-06-11 15:28:00,SystemResetWarning,0833.1,5.00,000.00,029.8,028.2,000.0,038.3,031.3,26.4,0000.0,0004.54,0003.24,0002.92
2023-06-11 15:29:00,SystemResetWarning,0833.1,5.00,000.00,029.8,028.3,000.0,038.3,031.3,26.7,0000.0,0004.61,0003.25,0002.91
2023-06-11 15:30:00,SystemResetWarning,0833.1,5.01,000.00,029.8,028.3,000.0,038.3,031.3,26.4,0000.0,0004.67,0003.24,0002.88
2023-06-11 15:31:00,SystemResetWarning,0833.1,5.01,000.00,029.8,028.3,000.0,038.3,031.3,26.4,0000.0,0004.65,0003.23,0002.86
2023-06-11 15:32:00,SystemResetWarning,0833.1,5.00,000.00,029.8,028.3,000.0,038.3,031.3,26.2,0000.0,0004.69,0003.22,0002.84
2023-06-11 15:33:00,SystemResetWarning,0833.1,5.00,000.00,029.8,028.3,000.0,038.3,031.4,26.2,0000.0,0004.73,0003.22,0002.85
2023-06-11 15:34:00,SystemResetWarning,0833.1,5.00,000.00,029.8,028.3,000.0,038.3,031.4,26.1,0000.0,0004.76,0003.22,0002.85
2023-06-11 15:35:00,SystemResetWarning,0833.1,4.99,000.00,029.9,028.3,000.0,038.3,031.4,26.0,0000.0,0004.83,0003.24,0002.88
2023-06-11 15:36:00,SystemResetWarning,0833.2,5.00,000.00,029.9,028.3,000.0,038.4,031.4,26.2,0000.0,0005.01,0003.27,0002.91
2023-06-11 15:37:00,SystemResetWarning,0833.2,5.00,000.00,029.9,028.3,000.0,038.4,031.4,26.2,0000.0,0004.95,0003.29,0002.95
2023-06-11 15:38:00,SystemResetWarning,0833.0,5.00,000.00,029.9,028.3,000.0,038.4,031.4,26.1,0000.0,0004.86,0003.27,0002.95
2023-06-11 15:39:00,SystemResetWarning,0833.0,5.00,000.00,029.9,028.3,000.0,038.4,031.4,26.3,0000.0,0004.76,0003.25,0002.96
2023-06-11 15:40:00,SystemResetWarning,0833.0,5.00,000.00,029.9,028.3,000.0,038.4,031.4,26.0,0000.0,0004.88,0003.30,0003.00
2023-06-11 15:41:00,SystemResetWarning,0833.0,5.00,000.00,029.9,028.3,000.0,038.4,031.4,26.1,0000.0,0004.99,0003.35,0003.06
2023-06-11 15:42:00,SystemResetWarning,0833.0,5.01,000.00,029.9,028.4,000.0,038.4,031.4,26.0,0000.0,0005.01,0003.39,0003.09
2023-06-11 15:43:00,SystemResetWarning,0833.0,5.00,000.00,029.9,028.4,000.0,038.4,031.4,26.2,0000.0,0005.00,0003.43,0003.12
2023-06-11 15:44:00,SystemResetWarning,0833.0,5.01,000.00,029.9,028.4,000.0,038.4,031.4,26.2,0000.0,0004.98,0003.43,0003.12
2023-06-11 15:45:00,SystemResetWarning,0833.0,5.00,000.00,029.9,028.4,000.0,038.4,031.4,26.1,0000.0,0004.96,0003.43,0003.12
2023-06-11 15:46:00,SystemResetWarning,0833.0,5.01,000.00,030.0,028.4,000.0,038.4,031.4,26.6,0000.0,0004.93,0003.42,0003.11
2023-06-11 15:47:00,SystemResetWarning,0833.1,5.00,000.00,030.0,028.4,000.0,038.5,031.4,26.5,0000.0,0004.77,0003.40,0003.11
2023-06-11 15:48:00,SystemResetWarning,0833.1,4.99,000.00,030.0,028.4,000.0,038.5,031.4,26.1,0000.0,0005.69,0003.41,0003.12
2023-06-11 15:49:00,SystemResetWarning,0833.0,5.00,000.00,030.0,028.4,000.0,038.5,031.5,26.1,0000.0,0006.57,0003.45,0003.14
2023-06-11 15:50:00,SystemResetWarning,0833.1,4.99,000.00,030.0,028.4,000.0,038.5,031.5,26.2,0000.0,0007.24,0003.46,0003.17
2023-06-11 15:51:00,SystemResetWarning,0833.3,5.00,000.00,030.0,028.5,000.0,038.5,031.5,26.2,0000.0,0007.30,0003.47,0003.19
2023-06-11 15:52:00,SystemResetWarning,0833.1,5.00,000.00,030.0,028.5,000.0,038.5,031.5,26.2,0000.0,0007.15,0003.43,0003.19
2023-06-11 15:53:00,SystemResetWarning,0833.4,5.00,000.00,030.0,028.5,000.0,038.5,031.5,26.3,0000.0,0007.08,0003.42,0003.19
2023-06-11 15:54:00,SystemResetWarning,0833.4,5.00,000.00,030.0,028.5,000.0,038.5,031.5,26.1,0000.0,0006.98,0003.40,0003.19
2023-06-11 15:55:00,SystemResetWarning,0833.3,5.00,000.00,030.1,028.5,000.0,038.5,031.5,25.9,0000.0,0006.98,0003.41,0003.21
2023-06-11 15:56:00,SystemResetWarning,0833.4,5.00,000.00,030.1,028.5,000.0,038.5,031.5,25.8,0000.0,0006.99,0003.43,0003.23
2023-06-11 15:57:00,SystemResetWarning,0833.5,5.00,000.00,030.1,028.5,000.0,038.5,031.5,26.0,0000.0,0007.00,0003.45,0003.25
2023-06-11 15:58:00,SystemResetWarning,0833.3,5.00,000.00,030.1,028.5,000.0,038.6,031.6,26.2,0000.0,0007.11,0003.49,0003.27
2023-06-11 15:59:00,SystemResetWarning,0833.0,5.00,000.00,030.1,028.5,000.0,038.6,031.6,26.0,0000.0,0006.65,0003.52,0003.28
